Home > Weather > Stanley > Past weeks

Flag for Falkland Islands Past Weather in Stanley, Falkland Islands — Yesterday and Last 2 Weeks

Now
34 °F

Light rain. Passing clouds.


Feels Like: 25 °F
Forecast: 36 / 42 °F
Wind: 13 mph from Northeast

Location: Mount Pleasant Airport

Current Time: Jul 29, 2016 at 7:16:03 AM

Latest Report: Jul 29, 2016 at 6:50 AM


Visibility: 6 mi

Pressure: 30.04 "Hg

Humidity: 93%

Dew Point: 32 °F

Location of StanleyLocation

Past Weather in Stanley — Graph

°F

Stanley Temperature Yesterday

Maximum temperature yesterday: 37 °F (at 11:50 AM)
Minimum temperature yesterday: 30 °F (at 6:50 AM)
Average temperature yesterday: 33 °F

High & Low Weather Summary for the Past Weeks

 TemperatureHumidityPressure
High46 °F (Jul 21, 12:50 PM)100% (Jul 14, 8:50 AM)30.54 "Hg (Jul 14, 8:50 AM)
Low28 °F (Jul 23, 10:50 PM)53% (Jul 22, 1:50 PM)29.47 "Hg (Jul 21, 4:50 AM)
Average37 °F85%30.06 "Hg
* Reported Jul 14 5:50 AM — Jul 29 5:50 AM, Stanley, Weather by CustomWeather, © 2016

Note: Actual official high and low records may vary slightly from our data, if they occured in-between our weather recording intervals... More about our weather records

Advertising

Stanley Weather History for the Previous 24 Hours

Scroll right to see more
 ConditionsComfort  
Time TempWeatherWind HumidityBarometerVisibility
5:50 AM
Fri, Jul 29
34 °FMostly cloudy.7 mph93%30.07 "HgN/A
4:50 AM34 °FLight snow. Mostly cloudy.18 mph87%30.09 "HgN/A
3:50 AM34 °FLight snow. Mostly cloudy.20 mph87%30.12 "Hg3 mi
2:50 AM32 °FSnow flurries. Passing clouds.18 mph93%30.12 "HgN/A
1:50 AM32 °FClear.5 mph87%30.15 "HgN/A
12:50 AM32 °FClear.16 mph93%30.15 "HgN/A
11:50 PM
Thu, Jul 28
32 °FPassing clouds.16 mph87%30.15 "HgN/A
10:50 PM32 °FClear.16 mph80%30.18 "Hg10 mi
9:50 PM32 °FClear.18 mph75%30.18 "Hg10 mi
8:50 PM32 °FPassing clouds.17 mph80%30.18 "HgN/A
7:50 PM32 °FClear.12 mph75%30.18 "Hg10 mi
6:50 PM32 °FPassing clouds.8 mph75%30.21 "HgN/A
5:50 PM32 °FPassing clouds.6 mph80%30.24 "HgN/A
4:50 PM36 °FBroken clouds.8 mph70%30.24 "HgN/A
3:50 PM36 °FPartly sunny.9 mph75%30.24 "HgN/A
2:50 PM36 °FPartly sunny.10 mph70%30.27 "HgN/A
1:50 PM37 °FPartly sunny.9 mph70%30.27 "HgN/A
12:50 PM37 °FPartly sunny.12 mph65%30.27 "HgN/A
11:50 AM37 °FPartly sunny.12 mph65%30.30 "HgN/A
10:50 AM36 °FPartly sunny.12 mph75%30.30 "HgN/A
9:50 AM32 °FPassing clouds.10 mph93%30.30 "HgN/A
8:50 AM30 °FScattered clouds.13 mph93%30.27 "HgN/A
7:50 AM30 °FPassing clouds.13 mph86%30.27 "HgN/A
Weather by CustomWeather, © 2016

See weather overviewHow to use our weather pages